Terug naar catalogus

CZ-6A DEB

ActiefPO
NORAD 54286·DEBRIS·🇨🇳 China

Gelanceerd Nov 11, 2022 vanaf Taiyuan Satellite Launch Center

Loading…

Volgende Passages (komende 24 uur)

TLE

VersSource: Space-Track

Epoch: Sep 13, 2026, 17:06 UTC

1 54286U 22151AD  26256.71297801  .00011268  00000-0  11904-2 0  9997
2 54286  98.5951 352.4977 0073406 259.9838  99.3086 14.87442514204556

Volg CZ-6A DEB in realtime met AllMySat

Download on the App Store